This is the latest recevied weather packets stored in our database for station/object KE8CZD. If no packets are shown the sender has not sent any weather packets the latest 10 day(s).
| Time | Temp. | Humidity | Pressure | Rain* | Wind** | Luminosity | Snow |
|---|---|---|---|---|---|---|---|
| 1778079644 | 9.44° C | 47% | 1009.1 hPa | 0 mm | - | - | - |
| 1778079285 | 9.44° C | 51% | 1009.1 hPa | 0 mm | - | - | - |
| 1778078925 | 9.44° C | 51% | 1009 hPa | 0 mm | - | - | - |
| 1778078564 | 9.44° C | 53% | 1008.8 hPa | 0 mm | - | - | - |
| 1778078205 | 9.44° C | 54% | 1009 hPa | 0 mm | - | - | - |
| 1778077845 | 8.89° C | 54% | 1009.1 hPa | 0 mm | - | - | - |
| 1778077485 | 8.33° C | 55% | 1009 hPa | 0 mm | - | - | - |
| 1778077125 | 8.89° C | 54% | 1009 hPa | 0 mm | - | - | - |
| 1778076764 | 8.89° C | 54% | 1008.9 hPa | 0 mm | - | - | - |
| 1778076404 | 8.89° C | 54% | 1008.7 hPa | 0 mm | - | - | - |
| 1778076044 | 9.44° C | 54% | 1008.7 hPa | 0 mm | - | - | - |
| 1778075686 | 8.89° C | 55% | 1008.8 hPa | 0 mm | - | - | - |
| 1778075324 | 8.89° C | 56% | 1008.6 hPa | 0 mm | - | - | - |
| 1778074964 | 8.33° C | 57% | 1008.5 hPa | 0 mm | - | - | - |
| 1778074604 | 8.33° C | 58% | 1008.5 hPa | 0 mm | - | - | - |
| 1778074244 | 8.33° C | 59% | 1008.5 hPa | 0 mm | - | - | - |
| 1778073885 | 8.33° C | 62% | 1008.4 hPa | 0 mm | - | - | - |
| 1778073524 | 8.33° C | 63% | 1008.2 hPa | 0 mm | - | - | - |
| 1778073164 | 8.33° C | 66% | 1008.2 hPa | 0 mm | - | - | - |
| 1778072806 | 7.78° C | 68% | 1008.3 hPa | 0 mm | - | - | - |
| 1778072444 | 8.33° C | 71% | 1008.2 hPa | 0 mm | - | - | - |
| 1778072084 | 7.78° C | 73% | 1008 hPa | 0 mm | - | - | - |
| 1778071726 | 7.78° C | 73% | 1007.8 hPa | 0 mm | - | - | - |
| 1778071365 | 7.78° C | 73% | 1007.8 hPa | 0 mm | - | - | - |
| 1778071004 | 7.78° C | 74% | 1007.9 hPa | 0 mm | - | - | - |
* Rain latest hour (hover to see other rain measurements)
** Current wind speed in m/s (hover to see current wind gust speed)